Location: Izdebnik
(49.8699°N, 19.7619°E)
Time: 16:33:19
(UTC+01:00)

ISS - Visible Passes

Search period start: 20 November 2017 00:00
Search period end: 30 November 2017 00:00
Orbit: 402 x 407 km, 51.6° (Epoch: 21 November)

Date Brightness Start Highest point End Pass type
(mag) Time Alt. Az. Time Alt. Az. Time Alt. Az.
27 Nov -1.2 17:34:52 10° SSE 17:34:58 10° SSE 17:34:58 10° SSE visible
28 Nov -1.4 18:16:28 10° SSW 18:17:35 18° SSW 18:17:35 18° SSW visible
29 Nov -2.2 17:24:39 10° SSW 17:27:12 21° SE 17:27:28 21° SE visible
29 Nov -0.3 19:00:03 10° WSW 19:00:07 10° WSW 19:00:07 10° WSW visible
